Powrót do katalogu

STARLINK-4175

AktywnyŁącznośćVLEO
NORAD 53283·PAYLOAD·🇺🇸 United States

Wystrzelony Jul 24, 2022 z Cape Canaveral Space Force Station

Loading…

Następne Przeloty (najbliższe 24 godziny)

TLE

ŚwieżeSource: CelesTrak SupGP

Epoka: Sep 14, 2026, 21:03 UTC

1 53283C 22086AT  26257.87756944  .00045799  00000+0  13102-2 0  2570
2 53283  53.1616  40.3357 0001093  79.1484 336.9007 15.35380592    13

Śledź STARLINK-4175 w czasie rzeczywistym z AllMySat

Download on the App Store